Home   Weather   Bamenda   Past weeks

Flag for Cameroon Past Weather in Bamenda, Cameroon — Yesterday and Last 2 Weeks

Now
73 °F

Thunderstorms. Partly cloudy.


Feels Like: 68 °F
Forecast: 61 / 83 °F
Wind: No wind

Location: Douala Obs.

Current Time: Apr 28, 2017 at 5:51:38 am

Latest Report: Apr 28, 2017 at 5:00 am


Visibility: 4 mi

Pressure: 29.86 "Hg (25.88 "Hg at 1240m altitude)

Humidity: 100%

Dew Point: 73 °F

Location of BamendaLocation

Past Weather in Bamenda — Graph

°F

Bamenda Temperature Yesterday

Maximum temperature yesterday: 91 °F (at 1:00 pm)
Minimum temperature yesterday: 73 °F (at 2:00 am)
Average temperature yesterday: 82 °F

High & Low Weather Summary for the Past Weeks

 TemperatureHumidityPressure
High95 °F (Apr 19, 2:00 pm)100% (Apr 14, 2:00 am)29.92 "Hg (Apr 14, 2:00 am)
Low73 °F (Apr 23, 3:00 am)52% (Apr 26, 12:00 pm)29.68 "Hg (Apr 18, 4:00 pm)
Average82 °F85%29.81 "Hg
* Reported Apr 13 4:00 am — Apr 28 4:00 am, Bamenda, Weather by CustomWeather, © 2017

Note: Actual official high and low records may vary slightly from our data, if they occured in-between our weather recording intervals... More about our weather records

Advertising

Bamenda Weather History for the Previous 24 Hours

Scroll right to see more
 ConditionsComfort  
Time TempWeatherWind HumidityBarometerVisibility
4:00 am
Fri, Apr 28
73 °FThunderstorms. Partly cloudy.2 mph100%29.86 "Hg4 mi
3:00 am77 °FThunderstorms. Mostly cloudy.9 mph94%29.89 "Hg2 mi
2:00 am81 °FThunderstorms. Passing clouds.No wind94%29.89 "Hg5 mi
1:00 am81 °FPassing clouds.2 mph89%29.92 "HgN/A
12:00 am81 °FPassing clouds.No wind89%29.89 "HgN/A
11:00 pm
Thu, Apr 27
81 °FPassing clouds.No wind94%29.89 "HgN/A
10:00 pm82 °FPassing clouds.2 mph84%29.86 "HgN/A
9:00 pm82 °FPassing clouds.5 mph84%29.86 "HgN/A
8:00 pm82 °FPassing clouds.5 mph84%29.83 "HgN/A
7:00 pm82 °FPassing clouds.6 mph79%29.77 "HgN/A
6:00 pm84 °FScattered clouds.8 mph74%29.77 "HgN/A
5:00 pm86 °FScattered clouds.9 mph70%29.77 "HgN/A
4:00 pm88 °FScattered clouds.12 mph70%29.77 "HgN/A
3:00 pm91 °FScattered clouds.9 mph63%29.80 "HgN/A
2:00 pm91 °FPartly sunny.5 mph56%29.80 "HgN/A
1:00 pm91 °FPartly sunny.5 mph56%29.89 "HgN/A
12:00 pm88 °FPartly sunny.5 mph70%29.89 "HgN/A
11:00 am86 °FScattered clouds.2 mph75%29.92 "HgN/A
10:00 am84 °FBroken clouds.2 mph79%29.92 "HgN/A
9:00 am81 °FPartly sunny.2 mph84%29.92 "HgN/A
8:00 am77 °FBroken clouds.No wind89%29.89 "HgN/A
7:00 am75 °FThunderstorms. Broken clouds.No wind94%29.86 "HgN/A
6:00 am73 °FThunderstorms. Passing clouds.3 mph94%29.86 "Hg5 mi
5:00 am73 °FThunderstorms. Partly cloudy.2 mph94%29.83 "Hg5 mi
Weather by CustomWeather, © 2017

See weather overviewHow to use our weather pages